RYR50A EDDS-ENBR

Flight info

Callsign RYR50A
Flight time N/A
Altitude 32000
Route OKIBA4B/25 OKIBA N851 RIMKI Z99 LOHRE/N0447F370 N746 TIKNI DCT FEDZA N858 ESOBU N746 KENIG/N0449F380 DCT ZUCKA DCT HAM DCT TUGDU DCT DEMIR DCT RASVI DCT BADAB
Aircraft B738/M-SDE2E3FGHIRWXY/LB1

Departure

Time N/A
Airport Stuttgart Airport (EDDS)

Arrival

Time 2026-05-03 20:40
Airport Bergen Airport, Flesland (ENBR)
Time Latitude Longitude Altitude Speed Heading
2026-05-03 20:15 58.82028 6.32427 29632 ft 437 kts 321°
2026-05-03 20:15 58.84606 6.29366 29070 ft 433 kts 322°
2026-05-03 20:15 58.87156 6.26334 28550 ft 428 kts 322°
2026-05-03 20:15 58.89677 6.23331 28069 ft 423 kts 322°
2026-05-03 20:16 58.92170 6.20356 27529 ft 419 kts 322°
2026-05-03 20:16 58.94636 6.17408 27009 ft 415 kts 322°
2026-05-03 20:16 58.97079 6.14481 26527 ft 409 kts 322°
2026-05-03 20:16 58.99458 6.11627 26037 ft 405 kts 322°
2026-05-03 20:17 59.01843 6.08761 25541 ft 402 kts 322°
2026-05-03 20:17 59.04210 6.05912 25082 ft 399 kts 322°
2026-05-03 20:17 59.06570 6.03115 24565 ft 398 kts 326°
2026-05-03 20:17 59.09191 6.01269 24058 ft 407 kts 343°
2026-05-03 20:18 59.11974 6.00295 23578 ft 405 kts 344°
2026-05-03 20:18 59.14742 5.99331 23035 ft 402 kts 344°
2026-05-03 20:18 59.17486 5.98347 22507 ft 399 kts 344°
2026-05-03 20:18 59.20195 5.97349 22057 ft 394 kts 343°
2026-05-03 20:19 59.22879 5.96339 21563 ft 390 kts 343°
2026-05-03 20:19 59.25530 5.95329 21104 ft 386 kts 343°
2026-05-03 20:19 59.28159 5.94320 20628 ft 383 kts 343°
2026-05-03 20:19 59.30760 5.93319 20168 ft 379 kts 343°
2026-05-03 20:20 59.33342 5.92324 19729 ft 376 kts 343°
2026-05-03 20:20 59.35900 5.91337 19273 ft 373 kts 343°
2026-05-03 20:20 59.38435 5.90358 18821 ft 370 kts 343°
2026-05-03 20:20 59.40956 5.89384 18382 ft 368 kts 343°
2026-05-03 20:21 59.43464 5.88430 17902 ft 367 kts 345°
2026-05-03 20:21 59.46000 5.87814 17406 ft 367 kts 350°
2026-05-03 20:21 59.48535 5.87434 16975 ft 364 kts 351°
2026-05-03 20:21 59.51058 5.87102 16521 ft 362 kts 351°
2026-05-03 20:22 59.53568 5.86755 16063 ft 360 kts 350°
2026-05-03 20:22 59.56021 5.86389 15612 ft 357 kts 350°
2026-05-03 20:22 59.58484 5.86003 15175 ft 353 kts 349°
2026-05-03 20:22 59.60922 5.85606 14762 ft 350 kts 349°
2026-05-03 20:23 59.63345 5.85208 14325 ft 348 kts 349°
2026-05-03 20:23 59.65747 5.84814 13889 ft 345 kts 349°
2026-05-03 20:23 59.68134 5.84416 13400 ft 344 kts 349°
2026-05-03 20:23 59.70517 5.84020 12894 ft 344 kts 350°
2026-05-03 20:24 59.72895 5.83632 12440 ft 341 kts 350°
2026-05-03 20:24 59.75250 5.83244 12022 ft 338 kts 350°
2026-05-03 20:24 59.77576 5.82859 11603 ft 334 kts 350°
2026-05-03 20:24 59.79883 5.82477 11206 ft 331 kts 350°
2026-05-03 20:25 59.82176 5.82144 10788 ft 331 kts 354°
2026-05-03 20:25 59.84473 5.82674 10432 ft 332 kts
2026-05-03 20:25 59.86702 5.83603 10287 ft 323 kts
2026-05-03 20:25 59.88875 5.84541 10145 ft 315 kts
2026-05-03 20:26 59.90993 5.85410 10021 ft 307 kts
2026-05-03 20:26 59.93064 5.86216 9843 ft 300 kts
2026-05-03 20:26 59.95106 5.86997 9518 ft 298 kts
2026-05-03 20:26 59.97130 5.87768 9201 ft 295 kts
2026-05-03 20:27 59.99138 5.88533 8874 ft 293 kts
2026-05-03 20:27 60.01136 5.89277 8564 ft 289 kts
2026-05-03 20:27 60.03037 5.88975 8406 ft 269 kts 336°
2026-05-03 20:27 60.04574 5.87114 8279 ft 253 kts 311°
2026-05-03 20:28 60.05623 5.84432 8175 ft 240 kts 296°
2026-05-03 20:28 60.06167 5.81366 8059 ft 229 kts 279°
2026-05-03 20:28 60.06347 5.78273 7941 ft 220 kts 262°
2026-05-03 20:28 60.05812 5.75491 7837 ft 214 kts 237°
2026-05-03 20:29 60.04789 5.73366 7736 ft 215 kts 219°
2026-05-03 20:29 60.03385 5.72024 7592 ft 231 kts 203°
2026-05-03 20:29 60.01839 5.70921 7382 ft 238 kts 205°
2026-05-03 20:29 60.00443 5.69262 7165 ft 231 kts 224°
2026-05-03 20:30 59.99244 5.67161 6959 ft 228 kts 223°
2026-05-03 20:30 59.98040 5.65128 6793 ft 226 kts 223°
2026-05-03 20:30 59.96861 5.63058 6584 ft 224 kts 231°
2026-05-03 20:30 59.96062 5.60474 6423 ft 215 kts 244°
2026-05-03 20:31 59.95360 5.57824 6243 ft 216 kts 245°
2026-05-03 20:31 59.94977 5.54980 6036 ft 214 kts 272°
2026-05-03 20:31 59.95395 5.52175 5854 ft 213 kts 301°
2026-05-03 20:31 59.96444 5.50096 5658 ft 216 kts 327°
2026-05-03 20:32 59.97841 5.48999 5483 ft 217 kts 340°
2026-05-03 20:32 59.99284 5.48119 5277 ft 215 kts 341°
2026-05-03 20:32 60.00686 5.47266 5096 ft 212 kts 341°
2026-05-03 20:32 60.02082 5.46409 4906 ft 209 kts 341°
2026-05-03 20:33 60.03468 5.45552 4733 ft 208 kts 341°
2026-05-03 20:33 60.04851 5.44691 4554 ft 208 kts 341°
2026-05-03 20:33 60.06194 5.43694 4468 ft 201 kts 325°
2026-05-03 20:33 60.07024 5.41545 4460 ft 201 kts 294°
2026-05-03 20:34 60.07682 5.39011 4237 ft 206 kts 297°
2026-05-03 20:34 60.08390 5.36502 4027 ft 207 kts 298°
2026-05-03 20:34 60.09110 5.34010 3817 ft 208 kts 299°
2026-05-03 20:34 60.09843 5.31502 3613 ft 208 kts 300°
2026-05-03 20:35 60.10598 5.29091 3377 ft 200 kts 310°
2026-05-03 20:35 60.11761 5.27811 3206 ft 190 kts 349°
2026-05-03 20:35 60.13038 5.27405 3008 ft 182 kts 347°
2026-05-03 20:35 60.14258 5.26922 2821 ft 176 kts 348°
2026-05-03 20:36 60.15449 5.26497 2618 ft 176 kts 349°
2026-05-03 20:36 60.16646 5.26089 2518 ft 172 kts 349°
2026-05-03 20:36 60.17762 5.25714 2354 ft 154 kts 350°
2026-05-03 20:36 60.18766 5.25377 2162 ft 136 kts 350°
2026-05-03 20:37 60.19669 5.25074 1960 ft 130 kts 349°
2026-05-03 20:37 60.20551 5.24776 1790 ft 127 kts 349°
2026-05-03 20:37 60.21427 5.24474 1608 ft 129 kts 348°
2026-05-03 20:37 60.22316 5.24173 1418 ft 129 kts 349°
2026-05-03 20:38 60.23199 5.23884 1250 ft 130 kts 349°
2026-05-03 20:38 60.24092 5.23572 1022 ft 130 kts 348°
2026-05-03 20:38 60.24987 5.23272 860 ft 131 kts 348°
2026-05-03 20:38 60.25886 5.22969 664 ft 129 kts 349°
2026-05-03 20:39 60.26770 5.22698 501 ft 128 kts 347°
2026-05-03 20:39 60.27662 5.22367 311 ft 132 kts 349°
2026-05-03 20:39 60.28550 5.22095 150 ft 124 kts 346°
2026-05-03 20:39 60.29219 5.21857 152 ft 52 kts 351°
2026-05-03 20:40 60.29378 5.21870 154 ft 12 kts 57°
2026-05-03 20:40 60.29395 5.22038 154 ft 9 kts 80°
2026-05-03 20:40 60.29373 5.22122 154 ft 7 kts 151°
2026-05-03 20:40 60.29323 5.22146 153 ft 8 kts 168°
2026-05-03 20:41 60.29271 5.22163 153 ft 8 kts 172°
2026-05-03 20:41 60.29218 5.22181 152 ft 8 kts 170°
2026-05-03 20:41 60.29162 5.22199 152 ft 8 kts 171°
2026-05-03 20:41 60.29106 5.22219 151 ft 8 kts 167°
2026-05-03 20:42 60.29077 5.22316 151 ft 8 kts 119°
2026-05-03 20:42 60.29042 5.22381 151 ft 3 kts 129°
2026-05-03 20:42 60.29035 5.22426 150 ft 4 kts 90°
2026-05-03 20:42 60.29037 5.22476 150 ft 4 kts 83°
2026-05-03 20:43 60.29042 5.22547 151 ft 7 kts 79°
2026-05-03 20:43 60.29051 5.22657 151 ft 8 kts 84°
2026-05-03 20:43 60.29065 5.22732 151 ft 2 kts 32°
2026-05-03 20:43 60.29082 5.22734 151 ft 2 kts
2026-05-03 20:44 60.29097 5.22735 151 ft 0 kts